Location: Bauerbach
(50.4985°N, 10.3912°E)
Time: 00:44:32
(UTC+00:00)

IGS 5A - Pass Details

Date: 13 January 2026
Orbit: 551 x 554 km, 97.4° (Epoch: 8 January)

Event Time Altitude Azimuth Distance (km) Brightness Sun altitude
Rises 06:03:40 0° 5° (N) 2,742 6.7 -10.8°
Reaches altitude 10° 06:05:57 10° 356° (N) 1,843 5.7 -10.5°
Maximum altitude 06:09:30 32° 293° (WNW) 968 4.0 -10.0°
Drops below altitude 10° 06:13:02 10° 230° (SW) 1,829 5.7 -9.5°
Sets 06:15:18 0° 220° (SW) 2,719 6.7 -9.1°
